Location: Fontevrault
(47.1823°N, 0.0493°E)
Time: 13:24:35
(UTC+00:00)

Lacrosse 5 - Pass Details

Date: 27 October 2021
Orbit: 714 x 724 km, 57.0° (Epoch: 28 August)

Event Time Altitude Azimuth Distance (km) Brightness Sun altitude
Exits shadow 03:45:12 12° 159° (SSE) 2,029 4.2 -29.4°
Drops below altitude 10° 03:45:40 10° 157° (SSE) 2,194 4.4 -29.3°
Sets 03:48:06 0° 151° (SSE) 3,109 5.4 -28.9°
